Weather reports worldwide

Advertisment
Ciudad Real, Spain (8348): temperature & dewpoint: 11.06.2019 05:00:00 - 17.06.2019 05:00:00 (CEST)Ciudad Real, Spain (8348): wind speed: 11.06.2019 05:00:00 - 17.06.2019 05:00:00 (CEST)Ciudad Real, Spain (8348): wind direction: 11.06.2019 05:00:00 - 17.06.2019 05:00:00 (CEST)Ciudad Real, Spain (8348): reduced air pressure: 11.06.2019 05:00:00 - 17.06.2019 05:00:00 (CEST)Ciudad Real, Spain (8348): visibility: 11.06.2019 05:00:00 - 17.06.2019 05:00:00 (CEST)Ciudad Real, Spain (8348): precipitation: 11.06.2019 05:00:00 - 17.06.2019 05:00:00 (CEST)
Date & Time tt [°C] td [°C] ff [km/h] ff [kn] dd ppp [hPa] vv [km] rr [mm]
17.06.2019 05:00:00 18,5 3,1 5 3 WNW 1017,2 20 -
17.06.2019 04:00:00 19,3 3,4 9 5 WSW 1017,2 20 0,0
17.06.2019 03:00:00 20,2 3,4 8 4 WSW 1016,9 20 0,0
17.06.2019 02:00:00 21,0 2,7 11 6 WSW 1016,6 20 -
17.06.2019 01:00:00 21,1 1,9 5 3 WSW 1016,8 18 0,0
17.06.2019 00:00:00 22,6 1,6 5 3 SW 1016,4 20 0,0
16.06.2019 23:00:00 24,1 2,3 8 4 SW 1015,6 20 -
16.06.2019 22:00:00 25,9 2,5 9 5 SSW 1014,4 20 0,0
16.06.2019 21:00:00 27,6 1,9 11 6 SW 1013,6 20 0,0
16.06.2019 20:00:00 29,1 -0,2 11 6 SSW 1013,0 20 -
16.06.2019 19:00:00 30,3 1,7 13 7 SW 1012,5 20 0,0
16.06.2019 18:00:00 30,7 0,1 8 4 WSW 1012,3 20 0,0
16.06.2019 17:00:00 30,2 -0,3 9 5 W 1012,8 20 -
16.06.2019 16:00:00 30,7 -0,9 9 5 W 1013,0 20 0,0
16.06.2019 15:00:00 30,8 1,2 5 3 S 1013,5 20 0,0
16.06.2019 14:00:00 29,1 1,5 4 2 SSE 1014,7 20 -
16.06.2019 13:00:00 26,7 3,2 4 2 SW 1015,7 20 0,0
16.06.2019 12:00:00 25,0 4,7 4 2 NNW 1016,3 20 0,0
16.06.2019 11:00:00 21,7 2,9 5 3 ENE 1017,3 20 -
16.06.2019 10:00:00 19,3 2,2 8 4 ENE 1017,9 20 0,0
16.06.2019 09:00:00 16,7 1,5 8 4 ENE 1018,4 20 0,0
16.06.2019 08:00:00 13,4 1,1 4 2 NNE 1018,9 20 -
16.06.2019 07:00:00 12,7 1,1 2 1 NNE 1018,8 20 0,0
16.06.2019 06:00:00 13,5 0,8 0 0 N 1018,3 20 0,0
16.06.2019 05:00:00 14,1 0,3 2 1 E 1018,2 20 -
16.06.2019 04:00:00 15,4 1,1 2 1 E 1018,1 20 0,0
16.06.2019 03:00:00 17,0 1,4 2 1 WNW 1018,1 20 0,0
16.06.2019 02:00:00 17,4 0,5 4 2 WSW 1018,7 20 -
16.06.2019 01:00:00 19,0 0,5 5 3 NNE 1018,5 20 0,0
16.06.2019 00:00:00 20,3 0,1 8 4 WNW 1017,8 20 0,0
15.06.2019 23:00:00 21,6 0,1 11 6 WNW 1017,4 20 -
15.06.2019 22:00:00 23,1 0,8 4 2 WNW 1016,4 20 0,0
15.06.2019 21:00:00 24,5 0,7 5 3 WSW 1015,7 20 0,0
15.06.2019 20:00:00 26,8 0,5 9 5 NW 1014,8 20 -
15.06.2019 19:00:00 27,4 1,7 9 5 W 1014,7 20 0,0
15.06.2019 18:00:00 27,0 0,6 11 6 WNW 1015,0 20 0,0
15.06.2019 17:00:00 26,6 1,8 8 4 W 1015,5 20 -
15.06.2019 16:00:00 25,7 1,0 9 5 W 1016,3 20 0,0
15.06.2019 15:00:00 24,2 1,7 9 5 W 1017,1 20 0,0
15.06.2019 14:00:00 23,4 3,3 8 4 WSW 1017,8 20 -
15.06.2019 13:00:00 22,1 2,7 5 3 WNW 1018,4 20 0,0
15.06.2019 12:00:00 21,0 4,1 5 3 SW 1019,0 20 0,0
15.06.2019 11:00:00 19,2 4,5 9 5 WSW 1019,3 20 -
15.06.2019 10:00:00 17,4 5,3 5 3 W 1020,0 20 0,0
15.06.2019 09:00:00 15,8 5,1 4 2 W 1020,0 20 0,0
15.06.2019 08:00:00 13,1 4,5 4 2 WSW 1020,4 20 -
15.06.2019 07:00:00 12,2 3,9 5 3 WSW 1020,3 20 0,0
15.06.2019 06:00:00 12,6 3,5 5 3 WSW 1019,6 20 0,0
15.06.2019 05:00:00 13,2 3,3 5 3 WSW 1019,3 20 -
15.06.2019 04:00:00 13,8 3,3 8 4 WSW 1019,0 20 0,0
15.06.2019 03:00:00 14,5 3,0 5 3 WSW 1019,0 20 0,0
15.06.2019 02:00:00 15,1 2,9 8 4 W 1018,8 20 -
15.06.2019 01:00:00 15,8 2,9 8 4 W 1018,5 20 0,0
15.06.2019 00:00:00 16,4 2,8 8 4 W 1018,0 20 0,0
14.06.2019 23:00:00 17,5 2,6 9 5 W 1017,1 20 -
14.06.2019 22:00:00 18,9 2,3 11 6 WNW 1015,7 20 0,0
14.06.2019 21:00:00 20,5 2,8 18 10 WNW 1014,4 20 0,0
14.06.2019 20:00:00 23,0 3,0 18 10 WNW 1012,9 20 -
14.06.2019 19:00:00 24,8 2,2 15 8 W 1011,6 20 0,0
14.06.2019 18:00:00 25,2 3,2 16 9 W 1011,5 18 0,0
14.06.2019 17:00:00 25,5 4,6 13 7 WSW 1011,4 20 -
14.06.2019 16:00:00 25,4 3,9 13 7 SW 1011,6 20 0,0
14.06.2019 15:00:00 24,8 4,0 16 9 W 1011,6 20 0,0
14.06.2019 14:00:00 23,7 5,6 15 8 W 1012,1 20 -
14.06.2019 13:00:00 23,5 5,4 15 8 WSW 1012,1 20 0,0
14.06.2019 12:00:00 22,9 5,3 15 8 SW 1012,0 20 0,0
14.06.2019 11:00:00 21,3 6,0 11 6 WSW 1012,3 20 -
14.06.2019 10:00:00 19,0 4,0 9 5 WSW 1012,8 20 0,0
14.06.2019 09:00:00 16,6 3,6 8 4 SW 1013,3 16 0,0
14.06.2019 08:00:00 15,9 2,7 8 4 WSW 1012,7 20 -
14.06.2019 07:00:00 15,7 1,4 8 4 WSW 1012,2 20 0,0
14.06.2019 06:00:00 16,1 1,0 5 3 WNW 1011,9 20 0,0
14.06.2019 05:00:00 17,4 0,9 5 3 WNW 1010,9 20 -
14.06.2019 04:00:00 19,0 1,5 11 6 WSW 1010,7 20 0,0
14.06.2019 03:00:00 20,1 2,4 8 4 W 1009,9 20 0,0
14.06.2019 02:00:00 21,0 2,7 5 3 W 1009,9 20 -
14.06.2019 01:00:00 21,7 3,4 9 5 WNW 1009,3 20 0,0
14.06.2019 00:00:00 22,8 3,3 8 4 WSW 1008,8 20 0,0
13.06.2019 23:00:00 24,2 5,5 8 4 W 1007,5 20 -
13.06.2019 22:00:00 25,2 6,4 11 6 WSW 1006,2 20 0,0
13.06.2019 21:00:00 26,6 6,6 11 6 WSW 1005,3 20 0,0
13.06.2019 20:00:00 27,6 6,9 9 5 WSW 1004,8 20 -
13.06.2019 19:00:00 28,3 6,4 9 5 WSW 1004,5 20 0,0
13.06.2019 18:00:00 28,4 6,5 9 5 SW 1004,8 20 0,0
13.06.2019 17:00:00 28,8 6,8 5 3 SSW 1005,1 20 -
13.06.2019 16:00:00 29,9 6,5 9 5 S 1005,3 20 0,0
13.06.2019 15:00:00 29,2 7,1 11 6 S 1006,0 20 0,0
13.06.2019 14:00:00 27,3 8,2 9 5 SW 1007,1 20 -
13.06.2019 13:00:00 25,8 7,8 8 4 W 1007,6 19 0,0
13.06.2019 12:00:00 24,7 6,9 4 2 WSW 1008,6 20 0,0
13.06.2019 11:00:00 23,0 4,5 5 3 WSW 1009,1 20 -
13.06.2019 10:00:00 20,4 4,8 4 2 WSW 1010,1 20 0,0
13.06.2019 09:00:00 17,3 0,9 4 2 W 1010,7 20 0,0
13.06.2019 08:00:00 13,8 3,3 2 1 WNW 1011,0 20 -
13.06.2019 07:00:00 12,9 1,2 2 1 N 1011,1 20 0,0
13.06.2019 06:00:00 13,7 -1,5 2 1 N 1010,6 20 0,0
13.06.2019 05:00:00 14,5 -1,2 2 1 NNE 1010,1 20 -
13.06.2019 04:00:00 15,3 -2,7 2 1 N 1009,7 20 0,0
13.06.2019 03:00:00 17,0 -2,7 4 2 S 1009,3 20 0,0
13.06.2019 02:00:00 17,8 -4,2 4 2 W 1009,4 20 -
13.06.2019 01:00:00 19,0 -3,8 2 1 WSW 1009,5 20 0,0
13.06.2019 00:00:00 20,4 -3,3 4 2 SW 1009,1 20 0,0
12.06.2019 23:00:00 22,4 -3,9 5 3 W 1008,3 20 -
12.06.2019 22:00:00 24,0 -2,6 5 3 WNW 1007,1 20 0,0
12.06.2019 21:00:00 25,5 -1,4 8 4 WNW 1006,5 20 0,0
12.06.2019 20:00:00 27,4 -2,5 11 6 WNW 1006,0 20 -
12.06.2019 19:00:00 28,2 -2,8 9 5 W 1006,1 20 0,0
12.06.2019 18:00:00 28,7 -2,5 8 4 W 1006,6 20 0,0
12.06.2019 17:00:00 28,0 -2,0 11 6 SE 1007,1 20 -
12.06.2019 16:00:00 27,3 -1,6 11 6 SW 1007,8 20 0,0
12.06.2019 15:00:00 26,1 -0,1 8 4 N 1008,8 20 0,0
12.06.2019 14:00:00 25,1 0,5 5 3 SSW 1010,0 20 -
12.06.2019 13:00:00 24,0 0,3 8 4 W 1011,0 20 0,0
12.06.2019 12:00:00 23,1 2,5 5 3 SSE 1011,6 19 0,0
12.06.2019 11:00:00 20,1 6,4 5 3 ENE 1012,4 20 -
12.06.2019 10:00:00 17,1 6,0 5 3 E 1013,4 20 0,0
12.06.2019 09:00:00 14,0 6,6 9 5 ENE 1014,2 20 0,0
12.06.2019 08:00:00 10,7 5,9 5 3 E 1014,7 20 -
12.06.2019 07:00:00 9,7 4,3 5 3 E 1014,8 20 0,0
12.06.2019 06:00:00 10,4 3,4 5 3 ENE 1014,4 20 0,0
12.06.2019 05:00:00 10,8 0,2 4 2 ENE 1014,1 20 -
12.06.2019 04:00:00 11,5 -3,5 4 2 NE 1014,2 20 0,0
12.06.2019 03:00:00 12,2 -3,2 4 2 NNE 1014,1 20 0,0
12.06.2019 02:00:00 13,2 -2,7 4 2 NE 1014,1 20 -
12.06.2019 01:00:00 14,5 -2,0 4 2 NE 1014,2 20 0,0
12.06.2019 00:00:00 15,6 -1,5 5 3 NE 1013,8 20 0,0
11.06.2019 23:00:00 17,1 -1,1 5 3 NNE 1013,4 20 -
11.06.2019 22:00:00 18,9 0,0 4 2 NNE 1012,2 20 0,0
11.06.2019 21:00:00 20,3 1,2 11 6 NE 1011,4 20 0,0
11.06.2019 20:00:00 22,0 2,6 13 7 NE 1010,5 20 -
11.06.2019 19:00:00 22,5 3,6 13 7 NNE 1009,9 20 0,0
11.06.2019 18:00:00 23,1 4,1 18 10 NE 1009,5 19 0,0
11.06.2019 17:00:00 24,2 5,0 13 7 N 1008,8 20 -
11.06.2019 16:00:00 23,9 4,3 15 8 NNE 1008,8 20 0,0
11.06.2019 15:00:00 24,4 4,7 11 6 NNW 1008,4 20 0,0
11.06.2019 14:00:00 23,6 5,5 5 3 E 1008,8 20 -
11.06.2019 13:00:00 23,5 5,8 9 5 NW 1008,9 20 0,0
11.06.2019 12:00:00 21,9 5,3 8 4 NW 1009,4 20 0,0
11.06.2019 11:00:00 20,1 4,9 8 4 WNW 1010,2 20 -
11.06.2019 10:00:00 18,5 4,3 9 5 W 1010,4 20 0,0
11.06.2019 09:00:00 16,9 4,2 9 5 W 1010,9 20 0,0
11.06.2019 08:00:00 15,2 4,0 5 3 WSW 1011,2 20 -
11.06.2019 07:00:00 14,7 3,5 4 2 SW 1011,6 20 0,0
11.06.2019 06:00:00 15,4 2,9 8 4 WSW 1011,3 20 0,0
11.06.2019 05:00:00 16,1 2,1 9 5 WSW 1011,3 20 -

tt = temperature
td = dewpoint
ff = wind speed
dd = wind direction
ppp = reduced air pressure
vv = visibility
rr = precipitation

Next stations